Login

davmatt98
2 activity; - Last training unit 25/06/2015
25/06/2015 Show to everybody Quinzano 61.1 0 02:32:17 24.07 Km\h S Works SL 4
20/06/2015 Show to everybody Vignale 36.7 0 02:16:45 16.1 Km\h S Works SL 4
19/06/2015 Show to everybody Zena 39.64 0 01:34:11 25.25 Km\h S Works SL 4
14/06/2015 Show to everybody Sassoleone Bordona Gessi 77.25 0 03:48:44 20.26 Km\h S Works SL 4
13/06/2015 Show to everybody vignale 27.78 0 02:03:53 13.45 Km\h S Works SL 4
09/06/2015 Show to everybody Fornace di Barbarolo 45.83 0 01:51:53 24.58 Km\h S Works SL 4
07/06/2015 Show to everybody Pieve del Pino Borgonuovo 56.32 0 03:00:40 18.7 Km\h S Works SL 4
06/06/2015 Show to everybody Monte adone 54.08 0 03:38:36 14.84 Km\h S Works SL 4
05/06/2015 Show to everybody lago castori 21.31 0 00:52:45 24.24 Km\h S Works SL 4
31/05/2015 Show to everybody capanna gustavo 20.18 0 01:54:33 10.57 Km\h S Works SL 4
30/05/2015 Show to everybody capoliveri 29.28 0 02:56:30 9.95 Km\h S Works SL 4
29/05/2015 Show to everybody polveriera 38.84 0 03:21:49 11.55 Km\h S Works SL 4
28/05/2015 Show to everybody miniere 27.38 0 02:35:32 10.56 Km\h S Works SL 4
13/06/2013 Show to everybody Torre Arabella 55.17 408 02:21:42 23.36 Km\h S Works SL 4
12/06/2013 Show to everybody Giro MTB 20.18 374 01:33:33 12.94 Km\h HIBIKE CROSS COUNTRI
08/06/2013 Show to everybody Bivio Monzuno 65.1 333 02:37:04 24.87 Km\h S Works SL 4
07/06/2013 Show to everybody Lungo Fiume 26.65 76 01:56:44 13.7 Km\h HIBIKE CROSS COUNTRI
04/06/2013 Show to everybody Fornace 47 269 01:53:19 24.89 Km\h S Works SL 4
28/05/2013 Show to everybody Quinzano 60.18 505 02:29:15 24.19 Km\h S Works SL 4
26/05/2013 Show to everybody Raduno Zena 53.25 244 02:23:16 22.3 Km\h S Works SL 4
25/05/2013 Show to everybody Raduno Villa Fontana 55.24 102 02:11:16 25.25 Km\h S Works SL 4
22/05/2013 Show to everybody Torre Arabella 53.52 411 02:20:30 22.86 Km\h S Works SL 4
19/05/2013 Show to everybody Gran Fondo Santerno 30.06 81 01:24:23 21.37 Km\h S Works SL 4
18/05/2013 Show to everybody Zena 38 208 01:36:38 23.59 Km\h S Works SL 4
14/05/2013 Show to everybody Quinzano 61.05 516 02:36:32 23.4 Km\h S Works SL 4
09/05/2013 Show to everybody Torre arabella 55.08 433 02:19:48 23.64 Km\h S Works SL 4
05/05/2013 Show to everybody Borgonuovo Badolo 60.14 513 03:03:11 19.7 Km\h S Works SL 4
03/05/2013 Show to everybody Torre Arabella 52.68 401 02:16:36 23.14 Km\h S Works SL 4
28/04/2013 Show to everybody Pianoro Botteghino Zena 50.01 369 02:27:31 20.34 Km\h S Works SL 4
25/04/2013 Show to everybody Raduno di Vado 70.04 250 03:08:36 22.28 Km\h S Works SL 4
20/04/2013 Show to everybody Seconda parte eroica 78.03 1214 03:07:54 24.92 Km\h HIBIKE CROSS COUNTRI
19/04/2013 Show to everybody Prima parte eroica 72.7 959 04:46:32 15.22 Km\h HIBIKE CROSS COUNTRI
16/04/2013 Show to everybody Trabucco e Riosto 44.7 470 02:13:07 20.15 Km\h S Works SL 4
14/04/2013 Show to everybody Raduno 52.24 153 02:33:16 20.45 Km\h S Works SL 4
11/04/2013 Show to everybody San Clemente 52.41 228 02:11:03 24 Km\h S Works SL 4
07/04/2013 Show to everybody Raduno Budrio 68.1 113 02:52:41 23.66 Km\h S Works SL 4
06/04/2013 Show to everybody Eremo e caminabile 33.38 328 02:14:38 14.88 Km\h HIBIKE CROSS COUNTRI
04/04/2013 Show to everybody Eremo 17.24 242 01:09:39 14.85 Km\h HIBIKE CROSS COUNTRI
03/04/2013 Show to everybody Zena 28.38 113 01:15:31 22.55 Km\h S Works SL 4
23/03/2013 Show to everybody Raduno Dosi 76.59 176 03:05:29 24.78 Km\h S Works SL 4
21/03/2013 Show to everybody Poggio 40.47 121 01:38:53 24.56 Km\h S Works SL 4
19/03/2013 Show to everybody Zena 34.06 171 01:25:55 23.78 Km\h S Works SL 4
17/03/2013 Show to everybody Granfondo Comacchio 88.42 19 03:08:58 28.08 Km\h S Works SL 4
16/03/2013 Show to everybody Raduno Galiera 91.87 139 03:46:42 24.32 Km\h S Works SL 4
12/03/2013 Show to everybody Poggio Piccolo 42.18 70 01:33:03 27.2 Km\h S Works SL 4
10/03/2013 Show to everybody Zena 37.24 207 01:41:30 22.02 Km\h S Works SL 4
04/03/2013 Show to everybody Poggio Piccolo 42.02 62 01:32:41 27.2 Km\h S Works SL 4
28/02/2013 Show to everybody Stradelli Guelfi 40.14 67 01:39:28 24.21 Km\h S Works SL 4
26/02/2013 Show to everybody Castel San Pietro Poggio Piccolo 41.02 92 01:34:35 26.02 Km\h S Works SL 4
25/02/2013 Show to everybody Martiri Croara 18.46 205 01:07:26 16.43 Km\h HIBIKE CROSS COUNTRI
19/02/2013 Show to everybody Castel Guelfo 51.1 74 01:52:54 27.16 Km\h S Works SL 4
10/02/2013 Show to everybody Challenge invernale Lugo 34.19 21 01:46:39 19.23 Km\h HIBIKE CROSS COUNTRI
09/02/2013 Show to everybody Botteghino grotte del farneto 23 84 01:08:45 20.07 Km\h HIBIKE CROSS COUNTRI
08/02/2013 Show to everybody Poggio Piccolo 41.76 72 01:37:25 25.72 Km\h S Works SL 4
05/02/2013 Show to everybody Poggio 42.95 95 01:39:58 25.78 Km\h S Works SL 4
04/02/2013 Show to everybody Poggio Piccolo 41.61 71 01:33:52 26.6 Km\h S Works SL 4
27/01/2013 Show to everybody castel guelfo km 64,56_266398095 64.51 158 02:25:26 26.62 Km\h S Works SL 4
19/01/2013 Show to everybody Colli Bolognesi 35.87 490 02:34:09 13.96 Km\h HIBIKE CROSS COUNTRI
13/01/2013 Show to everybody Varignana 43.54 351 02:28:06 17.64 Km\h HIBIKE CROSS COUNTRI
12/01/2013 Show to everybody Lungo Fiume 23.54 100 01:29:50 15.72 Km\h HIBIKE CROSS COUNTRI
07/01/2013 Show to everybody Poggio Piccolo 42.2 74 01:32:54 27.26 Km\h S Works SL 4
06/01/2013 Show to everybody Stradelli Guelfi 59.9 116 02:34:17 23.3 Km\h S Works SL 4
04/01/2013 Show to everybody Castel Guelfo 52.32 100 02:00:23 26.08 Km\h S Works SL 4
01/01/2013 Show to everybody Ciclabili centro Bologna 27.81 87 02:08:02 13.03 Km\h HIBIKE CROSS COUNTRI
30/12/2012 Show to everybody 7 traverse vilaggio martino 26.99 402 01:52:16 14.42 Km\h HIBIKE CROSS COUNTRI
29/12/2012 Show to everybody Vignale 33.35 278 01:47:41 18.58 Km\h HIBIKE CROSS COUNTRI
28/12/2012 Show to everybody Castel Guelfo 46.06 83 01:42:44 26.9 Km\h S Works SL 4
26/12/2012 Show to everybody Ciclabili San Luca 34.77 295 02:27:01 14.19 Km\h HIBIKE CROSS COUNTRI
24/12/2012 Show to everybody Eremo 15.2 247 01:03:50 14.29 Km\h HIBIKE CROSS COUNTRI
23/12/2012 Show to everybody Giro di Boncellino 40.34 56 02:18:55 17.42 Km\h HIBIKE CROSS COUNTRI
20/12/2012 Show to everybody Eremo 15.22 254 01:00:02 15.21 Km\h HIBIKE CROSS COUNTRI
18/12/2012 Show to everybody Parco dei cedri Croara Pulce 14.87 186 00:55:04 16.21 Km\h HIBIKE CROSS COUNTRI
16/12/2012 Show to everybody Prima parte giro Teleton 28.94 419 02:00:24 14.42 Km\h HIBIKE CROSS COUNTRI
09/12/2012 Show to everybody Allenamento 09-12-12 alle 07:34 30.49 156 01:50:33 16.55 Km\h
Training units 0
Kilometers 0 Km
Vertical gain 0 mt
Hours of riding 00:00:00
Average speed 0 Km/h
average HR 112
Points 51
Live Tracking »

HIBIKE CROSS COUNTRI 40:57:10 664.29 Km
S Works SL 4 116:50:30 2564.46 Km

 
If you stop following this users you will not be able to compare your trainings with his

Now you follow this users and you can compare your trainings


MTB-Mag.com | 2012-2020 Training Camp v.1.6 rev 05